"Period start","avg(HW err(1)/warn(2) (#))","avg(Visibility (m))","avg(Weather code (#))","avg(Precip intensity (mm/h))","min(HW err(1)/warn(2) (#))","max(HW err(1)/warn(2) (#))","std(HW err(1)/warn(2) (#))","med(HW err(1)/warn(2) (#))","min(Visibility (m))","max(Visibility (m))","std(Visibility (m))","med(Visibility (m))","min(Weather code (#))","max(Weather code (#))","std(Weather code (#))","med(Weather code (#))","min(Precip intensity (mm/h))","max(Precip intensity (mm/h))","std(Precip intensity (mm/h))","med(Precip intensity (mm/h))"
2017-11-18 00:00:00,2,958,71,4.16,2,2,0,2,798,1110,110,950,71,71,0,71,2.80,6.75,1.08,4.15
2017-11-18 00:10:00,2,1012,71,3.57,2,2,0,2,801,1254,164,982,71,71,0,71,2.15,4.80,0.85,3.67
2017-11-18 00:20:00,2,976,71,3.95,2,2,0,2,682,1150,119,978,71,71,0,71,2.45,6.50,1.15,3.67
2017-11-18 00:30:00,2,953,71,4.03,2,2,0,2,696,1152,127,966,71,71,0,71,2.65,6.25,0.93,4.10
2017-11-18 00:40:00,2,1165,71,2.93,2,2,0,2,813,1519,218,1220,71,71,0,71,1.55,4.60,0.84,2.92
2017-11-18 00:50:00,2,980,71,2.83,2,2,0,2,0,1753,543,959,71,72,0,71,0.85,6.75,2.13,1.73
2017-11-18 01:00:00,2,1094,71,1.81,1,2,0,2,667,1357,191,1100,71,71,0,71,1.05,3.50,0.76,1.82
2017-11-18 01:10:00,2,1272,71,1.83,2,2,0,2,803,1642,272,1287,71,71,0,71,0.60,3.60,0.83,1.95
2017-11-18 01:20:00,2,1183,71,2.09,2,2,0,2,910,1447,171,1218,71,71,0,71,1.15,3.25,0.73,2.05
2017-11-18 01:30:00,2,1145,71,2.48,2,2,0,2,991,1402,108,1121,71,71,0,71,1.30,4.50,1.06,2.15
2017-11-18 01:40:00,2,1443,71,1.33,2,2,0,2,1116,1809,210,1470,71,71,0,71,0.65,2.15,0.47,1.15
2017-11-18 01:50:00,2,1712,71,0.83,2,2,0,2,1394,2003,200,1754,71,71,0,71,0.30,1.60,0.42,0.80
2017-11-18 02:00:00,2,1743,71,1.07,2,2,0,2,862,2627,527,1764,71,71,0,71,0.30,2.85,0.78,0.77
2017-11-18 02:10:00,2,1948,71,0.72,2,2,0,2,1650,2148,151,2014,71,71,0,71,0.50,1.00,0.16,0.68
2017-11-18 02:20:00,2,2026,71,0.72,2,2,0,2,1463,2524,323,1934,71,71,0,71,0.40,1.00,0.20,0.75
2017-11-18 02:30:00,2,1931,71,0.65,2,2,0,2,1715,2257,166,1900,71,71,0,71,0.20,1.35,0.37,0.47
2017-11-18 02:40:00,2,1567,71,1.38,2,2,0,2,1411,1781,125,1569,71,71,0,71,0.75,2.25,0.45,1.33
2017-11-18 02:50:00,2,1414,71,1.76,2,2,0,2,1237,1566,94,1404,71,71,0,71,1.25,2.40,0.34,1.68
2017-11-18 03:00:00,2,1290,71,1.64,2,2,0,2,1176,1415,81,1296,71,71,0,71,0.90,2.65,0.56,1.40
2017-11-18 03:10:00,2,1308,71,1.00,2,2,0,2,1131,1428,89,1298,71,71,0,71,0.75,1.55,0.23,1.00
2017-11-18 03:20:00,2,1344,71,1.74,2,2,0,2,1109,1584,185,1310,71,71,0,71,0.85,2.65,0.60,1.88
2017-11-18 03:30:00,2,1507,71,0.99,1,2,0,2,1342,1727,130,1492,71,71,0,71,0.55,1.55,0.29,0.92
2017-11-18 03:40:00,1,0,71,1.23,1,2,0,1,0,0,0,0,71,71,0,71,1.00,1.45,0.22,1.23
2017-11-18 03:50:00,1,,,,1,1,0,1,,,,,,,,,,,,
2017-11-18 04:00:00,1,,,,1,1,0,1,,,,,,,,,,,,
2017-11-18 04:10:00,1,,,,1,1,0,1,,,,,,,,,,,,
2017-11-18 04:20:00,1,,,,1,1,0,1,,,,,,,,,,,,
2017-11-18 04:30:00,1,,,,1,1,0,1,,,,,,,,,,,,
2017-11-18 04:40:00,1,,,,1,1,0,1,,,,,,,,,,,,
2017-11-18 04:50:00,1,,,,1,1,0,1,,,,,,,,,,,,
2017-11-18 05:00:00,1,,,,1,1,0,1,,,,,,,,,,,,
2017-11-18 05:10:00,1,,,,1,1,0,1,,,,,,,,,,,,
2017-11-18 05:20:00,1,,,,1,1,0,1,,,,,,,,,,,,
2017-11-18 05:30:00,1,,,,1,1,0,1,,,,,,,,,,,,
2017-11-18 05:40:00,1,,,,1,1,0,1,,,,,,,,,,,,
2017-11-18 05:50:00,1,,,,1,1,0,1,,,,,,,,,,,,
2017-11-18 06:00:00,1,,,,1,1,0,1,,,,,,,,,,,,
2017-11-18 06:10:00,1,0,71,0.38,1,2,0,1,0,0,0,0,71,71,0,71,0.25,0.50,0.10,0.40
2017-11-18 06:20:00,2,1891,72,0.44,1,2,0,2,1512,2280,231,1836,71,77,2,71,0.30,0.65,0.12,0.45
2017-11-18 06:30:00,2,1727,71,1.10,2,2,0,2,1056,2180,323,1716,71,71,0,71,0.30,3.40,1.02,0.50
2017-11-18 06:40:00,2,1342,71,1.86,2,2,0,2,1043,1667,193,1278,71,71,0,71,0.70,4.05,0.97,1.48
2017-11-18 06:50:00,2,1149,71,1.35,2,2,0,2,838,1402,152,1178,71,71,0,71,0.70,2.30,0.48,1.27
2017-11-18 07:00:00,2,1718,71,0.86,2,2,0,2,1006,2927,573,1518,71,71,0,71,0.15,2.00,0.54,0.73
2017-11-18 07:10:00,2,2883,71,0.88,2,2,0,2,1357,4166,918,2830,71,71,0,71,0.10,4.25,1.23,0.40
2017-11-18 07:20:00,2,3935,75,0.22,2,2,0,2,2341,6996,1704,3050,71,77,3,77,0.05,0.45,0.15,0.23
2017-11-18 07:30:00,2,9903,77,0.06,2,2,0,2,5542,11967,2142,10606,77,77,0,77,0.00,0.20,0.06,0.05
2017-11-18 07:40:00,2,9897,78,0.09,2,2,0,2,6742,14804,2307,9903,77,78,0,78,0.00,0.20,0.05,0.10
2017-11-18 07:50:00,2,8931,75,0.10,2,2,0,2,6106,12502,1882,8588,71,78,3,78,0.05,0.25,0.07,0.05
2017-11-18 08:00:00,2,4278,73,0.72,2,2,0,2,2670,6676,1007,4344,71,77,3,71,0.15,1.65,0.48,0.62
2017-11-18 08:10:00,2,6713,71,0.70,2,2,0,2,2370,11181,2521,6962,71,71,0,71,0.10,2.25,0.75,0.23
2017-11-18 08:20:00,2,3492,71,0.57,2,2,0,2,2440,5119,886,3377,71,71,0,71,0.25,1.00,0.27,0.48
2017-11-18 08:30:00,2,7162,71,0.15,2,2,0,2,4778,8765,1306,7381,71,71,0,71,0.00,0.55,0.18,0.08
2017-11-18 08:40:00,2,4570,71,0.39,2,2,0,2,2867,6402,1160,4628,71,71,0,71,0.25,0.65,0.12,0.35
2017-11-18 08:50:00,2,3780,73,0.71,2,2,0,2,2505,5081,840,3805,71,77,3,71,0.25,1.95,0.50,0.47
2017-11-18 09:00:00,2,7460,71,0.21,2,2,0,2,3893,11336,2110,7180,71,71,0,71,0.05,0.75,0.25,0.10
2017-11-18 09:10:00,2,5450,76,0.02,2,2,0,2,4252,6169,615,5600,71,77,2,77,0.00,0.05,0.02,0.00
2017-11-18 09:20:00,2,3495,77,0.05,2,2,0,2,2749,4320,480,3375,77,77,0,77,0.05,0.05,0.00,0.05
2017-11-18 09:30:00,2,2665,77,0.11,2,2,0,2,2453,2898,139,2612,77,78,0,77,0.05,0.30,0.07,0.10
2017-11-18 09:40:00,2,2722,77,0.07,2,2,0,2,2442,3208,236,2670,77,78,0,77,0.05,0.10,0.02,0.05
2017-11-18 09:50:00,2,3785,77,0.07,2,2,0,2,2512,7368,1482,3255,77,77,0,77,0.00,0.10,0.04,0.08
2017-11-18 10:00:00,2,6143,77,0.01,2,2,0,2,3273,8380,1463,6452,77,77,0,77,0.00,0.05,0.02,0.00
2017-11-18 10:10:00,2,6451,77,0.02,2,2,0,2,6042,7159,349,6388,77,77,0,77,0.00,0.05,0.02,0.00
2017-11-18 10:20:00,2,4348,75,0.31,2,2,0,2,2961,6241,1218,4044,71,77,3,77,0.05,1.15,0.34,0.17
2017-11-18 10:30:00,2,4496,72,0.23,2,2,0,2,3142,6952,1204,4489,71,77,2,71,0.10,0.40,0.11,0.20
2017-11-18 10:40:00,2,6277,77,0.08,2,2,0,2,4291,7517,1047,6792,77,77,0,77,0.00,0.20,0.06,0.05
2017-11-18 10:50:00,2,8135,77,0.02,2,2,0,2,5817,10204,1497,8636,77,77,0,77,0.00,0.05,0.02,0.00
2017-11-18 11:00:00,2,7872,77,0.03,2,2,0,2,6244,9542,1045,7774,77,77,0,77,0.00,0.05,0.02,0.05
2017-11-18 11:10:00,2,6989,77,0.12,2,2,0,2,5024,9268,1604,6570,77,77,0,77,0.00,0.25,0.09,0.08
2017-11-18 11:20:00,2,5747,73,0.50,2,2,0,2,2759,10660,2459,5194,71,77,3,71,0.00,1.35,0.40,0.45
2017-11-18 11:30:00,2,8540,73,0.04,2,2,0,2,7484,9687,836,8322,71,77,3,71,0.00,0.10,0.03,0.05
2017-11-18 11:40:00,2,10102,75,0.03,2,2,0,2,8030,11685,1262,10406,71,77,3,77,0.00,0.10,0.04,0.00
2017-11-18 11:50:00,2,8558,72,0.06,2,2,0,2,7254,9954,824,8452,71,77,2,71,0.00,0.25,0.07,0.05
2017-11-18 12:00:00,2,8724,71,0.09,2,2,0,2,7267,10214,1002,8522,71,71,0,71,0.00,0.35,0.10,0.05
2017-11-18 12:10:00,2,5463,71,0.45,2,2,0,2,2521,8539,2018,5688,71,71,0,71,0.10,1.15,0.39,0.23
2017-11-18 12:20:00,2,3485,71,0.69,2,2,0,2,2882,3968,285,3474,71,71,0,71,0.35,1.05,0.18,0.73
2017-11-18 12:30:00,2,3382,71,0.89,2,2,0,2,3041,3577,167,3400,71,71,0,71,0.55,1.55,0.26,0.85
2017-11-18 12:40:00,2,3569,71,0.72,2,2,0,2,3162,3844,197,3599,71,71,0,71,0.50,1.00,0.16,0.73
2017-11-18 12:50:00,2,3989,71,0.53,2,2,0,2,3551,4319,289,4128,71,71,0,71,0.40,0.65,0.08,0.55
2017-11-18 13:00:00,2,3134,71,0.75,2,2,0,2,2923,3530,200,3070,71,71,0,71,0.60,1.10,0.17,0.68
2017-11-18 13:10:00,2,3546,71,0.47,2,2,0,2,2576,4226,500,3497,71,71,0,71,0.25,0.85,0.18,0.45
2017-11-18 13:20:00,2,4666,72,0.29,2,2,0,2,3751,5428,523,4681,71,77,2,71,0.15,0.50,0.10,0.25
2017-11-18 13:30:00,2,5761,77,0.16,2,2,0,2,5090,6382,461,5788,77,77,0,77,0.10,0.25,0.06,0.15
2017-11-18 13:40:00,2,4225,74,0.47,2,2,0,2,3587,4869,397,4158,71,77,3,74,0.35,0.95,0.17,0.42
2017-11-18 13:50:00,2,2513,71,1.04,2,2,0,2,2235,2906,164,2480,71,71,0,71,0.85,1.25,0.12,1.05
2017-11-18 14:00:00,2,2740,71,0.72,2,2,0,2,2395,3049,170,2753,71,71,0,71,0.55,0.90,0.11,0.73
2017-11-18 14:10:00,2,2499,71,0.79,2,2,0,2,2200,2675,143,2542,71,71,0,71,0.55,1.05,0.18,0.75
2017-11-18 14:20:00,2,3106,71,0.58,2,2,0,2,2704,3526,254,3036,71,71,0,71,0.45,0.75,0.10,0.57
2017-11-18 14:30:00,2,2876,71,0.57,2,2,0,2,2199,3791,416,2824,71,71,0,71,0.10,0.95,0.23,0.57
2017-11-18 14:40:00,2,3188,71,0.49,2,2,0,2,2368,3812,467,3287,71,71,0,71,0.25,0.85,0.17,0.40
2017-11-18 14:50:00,2,3142,74,0.40,2,2,0,2,2742,3398,231,3244,71,77,3,74,0.25,0.60,0.11,0.42
2017-11-18 15:00:00,2,3423,72,0.40,2,2,0,2,2910,4132,438,3288,71,77,2,71,0.25,0.55,0.11,0.42
2017-11-18 15:10:00,2,4211,74,0.29,2,2,0,2,3521,4912,435,4166,71,77,3,74,0.15,0.45,0.10,0.30
2017-11-18 15:20:00,2,4751,77,0.26,2,2,0,2,3702,6164,710,4496,77,77,0,77,0.15,0.35,0.06,0.25
2017-11-18 15:30:00,2,6227,73,0.14,2,2,0,2,5281,7385,654,6175,71,77,3,71,0.00,0.30,0.09,0.12
2017-11-18 15:40:00,2,7219,77,0.07,2,2,0,2,5706,7932,660,7436,77,77,0,77,0.00,0.15,0.04,0.08
2017-11-18 15:50:00,2,4692,73,0.35,2,2,0,2,2875,7132,1212,4426,71,77,3,71,0.05,1.15,0.30,0.30
2017-11-18 16:00:00,2,3056,71,0.93,2,2,0,2,2465,3453,304,3058,71,71,0,71,0.55,1.50,0.31,0.90
2017-11-18 16:10:00,2,3378,71,0.86,2,2,0,2,3086,4200,286,3316,71,71,0,71,0.40,1.30,0.27,0.85
2017-11-18 16:20:00,2,2700,71,1.28,2,2,0,2,2427,2988,197,2763,71,71,0,71,0.80,2.05,0.43,1.12
2017-11-18 16:30:00,2,2350,71,1.60,2,2,0,2,1825,2704,249,2316,71,71,0,71,0.95,2.45,0.47,1.70
2017-11-18 16:40:00,2,2845,71,0.91,2,2,0,2,2256,3161,267,2861,71,71,0,71,0.70,1.30,0.18,0.85
2017-11-18 16:50:00,2,3474,71,0.76,2,2,0,2,3134,3982,245,3414,71,71,0,71,0.45,1.25,0.28,0.70
2017-11-18 17:00:00,2,3277,71,1.25,2,2,0,2,3028,4094,296,3173,71,71,0,71,0.70,2.20,0.43,1.12
2017-11-18 17:10:00,2,3578,71,1.10,2,2,0,2,2901,4543,509,3538,71,71,0,71,0.65,2.15,0.43,1.00
2017-11-18 17:20:00,2,2743,71,1.98,2,2,0,2,1942,3612,450,2672,71,71,0,71,1.15,3.00,0.62,1.90
2017-11-18 17:30:00,2,1858,71,3.35,2,2,0,2,1086,2805,462,1850,71,71,0,71,1.55,5.55,1.16,3.28
2017-11-18 17:40:00,2,1211,71,4.69,2,2,0,2,998,1402,138,1243,71,71,0,71,3.80,6.00,0.60,4.75
2017-11-18 17:50:00,2,1157,71,4.54,2,2,0,2,920,1427,160,1178,71,72,0,71,2.75,5.90,1.07,4.45
2017-11-18 18:00:00,2,3019,71,1.54,2,2,0,2,885,5259,1531,3304,71,72,0,71,0.25,3.75,1.17,1.48
2017-11-18 18:10:00,2,4749,71,0.66,2,2,0,2,3092,6776,1096,4857,71,71,0,71,0.20,1.95,0.51,0.65
2017-11-18 18:20:00,2,5505,71,0.40,2,2,0,2,4450,6683,638,5445,71,71,0,71,0.05,1.00,0.31,0.32
2017-11-18 18:30:00,2,4538,71,0.37,2,2,0,2,3337,5587,771,4352,71,71,0,71,0.10,0.85,0.21,0.30
2017-11-18 18:40:00,2,3298,71,0.58,2,2,0,2,2613,4129,459,3333,71,71,0,71,0.25,1.30,0.30,0.55
2017-11-18 18:50:00,2,3802,71,0.27,2,2,0,2,2899,4610,521,3816,71,71,0,71,0.10,0.40,0.08,0.28
2017-11-18 19:00:00,2,3781,71,0.27,2,2,0,2,2830,4360,429,3870,71,71,0,71,0.10,0.50,0.12,0.23
2017-11-18 19:10:00,2,3407,71,0.23,2,2,0,2,2645,4767,696,3116,71,71,0,71,0.10,0.40,0.12,0.20
2017-11-18 19:20:00,2,3990,71,0.19,2,2,0,2,3208,4701,469,4082,71,71,0,71,0.10,0.35,0.08,0.17
2017-11-18 19:30:00,2,8163,71,0.12,2,2,0,2,5003,12913,2489,7272,71,71,0,71,0.00,0.65,0.18,0.05
2017-11-18 19:40:00,2,6534,71,0.35,2,2,0,2,4664,9406,1636,6050,71,71,0,71,0.00,0.80,0.22,0.33
2017-11-18 19:50:00,2,9746,71,0.03,2,2,0,2,7847,11292,1027,9753,71,71,0,71,0.00,0.15,0.05,0.00
2017-11-18 20:00:00,2,4783,71,0.49,2,2,0,2,2456,8013,1678,4524,71,71,0,71,0.00,0.80,0.25,0.55
2017-11-18 20:10:00,2,7663,71,0.17,2,2,0,2,5864,9558,1030,7498,71,71,0,71,0.05,0.40,0.11,0.15
2017-11-18 20:20:00,2,6008,71,0.21,2,2,0,2,3778,11061,2365,5193,71,71,0,71,0.00,0.60,0.21,0.10
2017-11-18 20:30:00,2,4729,71,0.34,2,2,0,2,3305,7043,1184,4300,71,71,0,71,0.05,1.00,0.31,0.17
2017-11-18 20:40:00,2,5176,71,0.34,2,2,0,2,2450,8302,1640,5002,71,71,0,71,0.05,1.00,0.29,0.28
2017-11-18 20:50:00,2,5007,71,0.38,2,2,0,2,3306,6873,1019,5098,71,71,0,71,0.15,0.75,0.17,0.38
2017-11-18 21:00:00,2,2676,71,1.53,2,2,0,2,1283,3904,877,2648,71,71,0,71,0.55,3.80,1.12,1.10
2017-11-18 21:10:00,2,1818,71,1.45,2,2,0,2,1398,2989,410,1698,71,71,0,71,0.65,2.35,0.53,1.38
2017-11-18 21:20:00,2,2731,71,1.30,2,2,0,2,1436,3904,688,2847,71,71,0,71,0.45,2.25,0.53,1.18
2017-11-18 21:30:00,2,3226,71,1.05,2,2,0,2,1107,7088,1977,2590,71,71,0,71,0.10,2.50,0.65,1.02
2017-11-18 21:40:00,2,3438,71,1.00,2,2,0,2,1253,5253,1268,3582,71,71,0,71,0.40,2.80,0.68,0.82
2017-11-18 21:50:00,2,4396,71,0.61,2,2,0,2,2947,7211,1282,4333,71,71,0,71,0.10,1.15,0.27,0.57
2017-11-18 22:00:00,2,1844,71,1.23,2,2,0,2,1037,2474,377,1844,71,71,0,71,0.25,2.05,0.61,1.02
2017-11-18 22:10:00,2,4767,71,0.91,2,2,0,2,1734,10934,2485,4192,71,71,0,71,0.05,1.95,0.62,0.93
2017-11-18 22:20:00,2,6221,71,0.53,2,2,0,2,4483,9281,1595,5616,71,71,0,71,0.20,1.25,0.34,0.38
2017-11-18 22:30:00,2,5912,71,0.61,2,2,0,2,4632,7870,1003,5816,71,71,0,71,0.25,1.20,0.30,0.68
2017-11-18 22:40:00,2,6056,71,0.55,2,2,0,2,4861,7324,852,6021,71,71,0,71,0.15,1.00,0.27,0.53
2017-11-18 22:50:00,2,7436,71,0.33,2,2,0,2,6321,8851,731,7156,71,71,0,71,0.10,0.50,0.14,0.33
2017-11-18 23:00:00,2,10794,71,0.30,2,2,0,2,8910,12331,1253,11189,71,71,0,71,0.10,0.75,0.21,0.23
2017-11-18 23:10:00,2,11333,71,0.11,2,2,0,2,7908,13479,1519,11634,71,71,0,71,0.05,0.30,0.08,0.10
2017-11-18 23:20:00,2,11915,71,0.17,2,2,0,2,9045,14104,1755,12082,71,71,0,71,0.05,0.35,0.12,0.10
2017-11-18 23:30:00,2,13124,71,0.15,2,2,0,2,9150,17773,2918,11950,71,71,0,71,0.00,0.50,0.15,0.10
2017-11-18 23:40:00,2,13818,71,0.09,2,2,0,2,8997,19446,2967,13493,71,71,0,71,0.00,0.20,0.06,0.08
2017-11-18 23:50:00,2,13759,72,0.11,2,2,0,2,11508,15785,1193,13542,71,77,2,71,0.05,0.20,0.05,0.10
